| time (UTC) | temp F | wind direction | speed MPH | gust MPH | rain 1hr in | rain 24hr in | rain mn in | humidity % | barometer mb |
| 20260507202702 | 65 | 225 | 0.0 | 4.0 | 0.00 | 0.06 | 0.06 | 53 | 1007.0 |
| 20260507202148 | 64 | 68 | 1.0 | 4.0 | 0.00 | 0.06 | 0.06 | 55 | 1006.8 |
| 20260507201638 | 64 | 315 | 0.0 | 6.0 | 0.00 | 0.06 | 0.06 | 55 | 1006.8 |
| 20260507201128 | 64 | 293 | 2.0 | 11.0 | 0.00 | 0.06 | 0.06 | 54 | 1007.1 |
| 20260507200619 | 65 | 90 | 2.0 | 11.0 | 0.00 | 0.06 | 0.06 | 54 | 1007.0 |
| 20260507195559 | 65 | 270 | 3.0 | 8.0 | 0.00 | 0.06 | 0.06 | 52 | 1007.1 |
| 20260507195050 | 65 | 293 | 0.0 | 7.0 | 0.00 | 0.06 | 0.06 | 52 | 1007.2 |
| 20260507194538 | 65 | 270 | 0.0 | 7.0 | 0.00 | 0.06 | 0.06 | 55 | 1007.3 |
| 20260507194029 | 64 | 248 | 0.0 | 6.0 | 0.00 | 0.06 | 0.06 | 58 | 1007.5 |
| 20260507193520 | 64 | 293 | 0.0 | 6.0 | 0.00 | 0.06 | 0.06 | 58 | 1007.5 |
| 20260507193010 | 64 | 248 | 0.0 | 4.0 | 0.00 | 0.06 | 0.06 | 59 | 1007.4 |
| 20260507192500 | 63 | 293 | 0.0 | 4.0 | 0.00 | 0.06 | 0.06 | 61 | 1007.5 |
| 20260507191949 | 61 | 248 | 0.0 | 4.0 | 0.00 | 0.06 | 0.06 | 64 | 1007.6 |
| 20260507191439 | 60 | 248 | 0.0 | 4.0 | 0.00 | 0.06 | 0.06 | 67 | 1007.9 |
| 20260507190929 | 59 | 293 | 0.0 | 4.0 | 0.00 | 0.06 | 0.06 | 66 | 1007.9 |
| 20260507190419 | 59 | 248 | 0.0 | 4.0 | 0.00 | 0.06 | 0.06 | 67 | 1007.7 |
| 20260507185909 | 59 | 270 | 0.0 | 4.0 | 0.00 | 0.06 | 0.06 | 68 | 1007.7 |
| 20260507185401 | 59 | 248 | 0.0 | 11.0 | 0.00 | 0.06 | 0.06 | 68 | 1007.2 |
| 20260507184847 | 59 | 270 | 0.0 | 11.0 | 0.00 | 0.06 | 0.06 | 67 | 1007.2 |
| 20260507184337 | 59 | 270 | 0.0 | 6.0 | 0.00 | 0.06 | 0.06 | 66 | 1006.9 |
| 20260507183828 | 59 | 248 | 0.0 | 6.0 | 0.00 | 0.06 | 0.06 | 67 | 1006.8 |
| 20260507183316 | 59 | 248 | 0.0 | 17.0 | 0.00 | 0.06 | 0.06 | 67 | 1006.8 |
| 20260507182807 | 59 | 315 | 1.0 | 17.0 | 0.00 | 0.06 | 0.06 | 70 | 1006.6 |
| 20260507182256 | 59 | 293 | 0.0 | 8.0 | 0.00 | 0.06 | 0.06 | 69 | 1006.2 |
| 20260507181743 | 59 | 270 | 2.0 | 8.0 | 0.00 | 0.06 | 0.06 | 69 | 1006.1 |
| 20260507181234 | 59 | 248 | 0.0 | 6.0 | 0.00 | 0.06 | 0.06 | 70 | 1006.1 |
| 20260507180727 | 60 | 113 | 0.0 | 4.0 | 0.00 | 0.06 | 0.06 | 74 | 1005.5 |
| 20260507180218 | 60 | 90 | 0.0 | 4.0 | 0.00 | 0.06 | 0.06 | 73 | 1005.2 |
| 20260507175707 | 60 | 23 | 0.0 | 6.0 | 0.00 | 0.06 | 0.06 | 75 | 1005.1 |
| 20260507175158 | 60 | 158 | 1.0 | 8.0 | 0.00 | 0.06 | 0.06 | 75 | 1004.8 |
| 20260507174647 | 59 | 225 | 3.0 | 11.0 | 0.00 | 0.06 | 0.06 | 75 | 1004.6 |
| 20260507174137 | 58 | 315 | 0.0 | 11.0 | 0.00 | 0.06 | 0.06 | 77 | 1005.4 |
| 20260507173118 | 58 | 293 | 2.0 | 7.0 | 0.00 | 0.06 | 0.06 | 77 | 1005.9 |
| 20260507172100 | 57 | 68 | 0.0 | 7.0 | 0.00 | 0.06 | 0.06 | 78 | 1006.4 |
| 20260507171544 | 57 | 158 | 2.0 | 6.0 | 0.00 | 0.06 | 0.06 | 79 | 1006.3 |
| 20260507171035 | 58 | 113 | 2.0 | 4.0 | 0.00 | 0.06 | 0.06 | 77 | 1005.7 |
| 20260507170525 | 59 | 248 | 2.0 | 9.0 | 0.00 | 0.06 | 0.06 | 78 | 1005.8 |
| 20260507170014 | 58 | 135 | 1.0 | 9.0 | 0.00 | 0.06 | 0.06 | 85 | 1006.6 |
| 20260507165504 | 56 | 203 | 0.0 | 7.0 | 0.00 | 0.06 | 0.06 | 89 | 1005.8 |
| 20260507164954 | 55 | 270 | 1.0 | 7.0 | 0.01 | 0.06 | 0.06 | 90 | 1007.3 |
| 20260507164445 | 55 | 293 | 0.0 | 6.0 | 0.01 | 0.06 | 0.06 | 92 | 1007.9 |
| 20260507163934 | 54 | 270 | 0.0 | 7.0 | 0.01 | 0.06 | 0.06 | 92 | 1008.2 |
| 20260507163425 | 54 | 293 | 3.0 | 8.0 | 0.01 | 0.06 | 0.06 | 93 | 1009.0 |
| 20260507162915 | 54 | 293 | 4.0 | 11.0 | 0.01 | 0.06 | 0.06 | 93 | 1009.7 |
| 20260507162405 | 54 | 293 | 4.0 | 11.0 | 0.01 | 0.06 | 0.06 | 94 | 1010.0 |
| 20260507161345 | 54 | 293 | 4.0 | 8.0 | 0.02 | 0.06 | 0.06 | 95 | 1010.2 |
| 20260507160836 | 53 | 270 | 0.0 | 2.0 | 0.02 | 0.06 | 0.06 | 95 | 1009.3 |
| 20260507160326 | 53 | 293 | 0.0 | 2.0 | 0.02 | 0.06 | 0.06 | 95 | 1009.3 |
| 20260507155815 | 53 | 270 | 0.0 | 2.0 | 0.02 | 0.06 | 0.06 | 95 | 1009.7 |
| 20260507155306 | 53 | 248 | 0.0 | 0.0 | 0.02 | 0.06 | 0.06 | 95 | 1009.9 |
| 20260507154757 | 53 | 248 | 0.0 | 4.0 | 0.01 | 0.05 | 0.05 | 95 | 1010.0 |
| 20260507154246 | 53 | 293 | 0.0 | 4.0 | 0.01 | 0.05 | 0.05 | 95 | 1010.4 |
| 20260507153734 | 53 | 293 | 0.0 | 2.0 | 0.01 | 0.05 | 0.05 | 95 | 1010.9 |
| 20260507153222 | 54 | 338 | 0.0 | 2.0 | 0.01 | 0.05 | 0.05 | 94 | 1009.7 |
| 20260507152712 | 53 | 293 | 0.0 | 0.0 | 0.01 | 0.05 | 0.05 | 92 | 1009.5 |
| 20260507152203 | 54 | 293 | 0.0 | 0.0 | 0.01 | 0.05 | 0.05 | 90 | 1009.2 |
| 20260507151142 | 55 | 248 | 0.0 | 4.0 | 0.01 | 0.04 | 0.04 | 87 | 1009.1 |
| 20260507150631 | 55 | 248 | 0.0 | 4.0 | 0.04 | 0.04 | 0.04 | 86 | 1009.3 |
| 20260507145615 | 56 | 270 | 0.0 | 2.0 | 0.04 | 0.04 | 0.04 | 87 | 1008.8 |
| 20260507144553 | 56 | 248 | 0.0 | 2.0 | 0.04 | 0.04 | 0.04 | 90 | 1008.2 |
| 20260507144043 | 56 | 270 | 0.0 | 4.0 | 0.04 | 0.04 | 0.04 | 89 | 1007.8 |
| 20260507143534 | 55 | 225 | 0.0 | 4.0 | 0.04 | 0.04 | 0.04 | 89 | 1007.6 |
| 20260507141455 | 56 | 180 | 0.0 | 2.0 | 0.02 | 0.02 | 0.02 | 88 | 1008.3 |
| 20260507140941 | 57 | 113 | 0.0 | 4.0 | 0.01 | 0.01 | 0.01 | 85 | 1009.0 |
| 20260507140435 | 58 | 270 | 0.0 | 4.0 | 0.00 | 0.00 | 0.00 | 81 | 1009.5 |
| 20260507135920 | 58 | 270 | 0.0 | 9.0 | 0.00 | 0.00 | 0.00 | 79 | 1010.1 |
| 20260507135410 | 58 | 270 | 2.0 | 18.0 | 0.00 | 0.00 | 0.00 | 79 | 1010.8 |
| 20260507134350 | 58 | 293 | 9.0 | 18.0 | 0.00 | 0.00 | 0.00 | 77 | 1011.6 |
| 20260507133840 | 59 | 270 | 4.0 | 14.0 | 0.00 | 0.00 | 0.00 | 75 | 1011.6 |
| 20260507133330 | 59 | 248 | 0.0 | 7.0 | 0.00 | 0.00 | 0.00 | 74 | 1010.2 |
| 20260507132822 | 59 | 248 | 0.0 | 2.0 | 0.00 | 0.00 | 0.00 | 76 | 1008.0 |
| 20260507132311 | 60 | 203 | 0.0 | 8.0 | 0.00 | 0.00 | 0.00 | 75 | 1007.4 |
| 20260507131251 | 60 | 203 | 2.0 | 11.0 | 0.00 | 0.00 | 0.00 | 76 | 1006.2 |
| 20260507130740 | 59 | 225 | 0.0 | 9.0 | 0.00 | 0.00 | 0.00 | 79 | 1006.3 |
| 20260507130231 | 59 | 203 | 0.0 | 8.0 | 0.00 | 0.00 | 0.00 | 81 | 1006.4 |
| 20260507125722 | 59 | 203 | 0.0 | 8.0 | 0.00 | 0.00 | 0.00 | 82 | 1007.2 |
| 20260507125212 | 59 | 203 | 0.0 | 4.0 | 0.00 | 0.00 | 0.00 | 79 | 1007.3 |
| 20260507124701 | 59 | 158 | 0.0 | 7.0 | 0.00 | 0.00 | 0.00 | 79 | 1007.1 |
| 20260507124153 | 60 | 158 | 0.0 | 7.0 | 0.00 | 0.00 | 0.00 | 76 | 1007.1 |
| 20260507123640 | 60 | 180 | 2.0 | 8.0 | 0.00 | 0.00 | 0.00 | 72 | 1007.1 |
| 20260507123130 | 61 | 180 | 1.0 | 8.0 | 0.00 | 0.00 | 0.00 | 72 | 1007.1 |
| 20260507122619 | 61 | 203 | 0.0 | 6.0 | 0.00 | 0.00 | 0.00 | 72 | 1007.0 |
| 20260507122108 | 61 | 158 | 0.0 | 4.0 | 0.00 | 0.00 | 0.00 | 74 | 1006.9 |
| 20260507121558 | 61 | 203 | 0.0 | 4.0 | 0.00 | 0.00 | 0.00 | 73 | 1006.8 |
| 20260507121048 | 61 | 248 | 0.0 | 4.0 | 0.00 | 0.00 | 0.00 | 74 | 1006.5 |
| 20260507120538 | 61 | 225 | 0.0 | 4.0 | 0.00 | 0.00 | 0.00 | 75 | 1006.5 |
| 20260507120028 | 61 | 158 | 0.0 | 7.0 | 0.00 | 0.00 | 0.00 | 74 | 1006.2 |
| 20260507115519 | 61 | 158 | 0.0 | 8.0 | 0.00 | 0.00 | 0.00 | 75 | 1005.8 |
| 20260507115010 | 62 | 180 | 0.0 | 8.0 | 0.00 | 0.00 | 0.00 | 75 | 1005.4 |
| 20260507114459 | 62 | 180 | 4.0 | 8.0 | 0.00 | 0.00 | 0.00 | 75 | 1005.0 |
| 20260507113951 | 62 | 203 | 0.0 | 11.0 | 0.00 | 0.00 | 0.00 | 75 | 1005.0 |
| 20260507112929 | 62 | 135 | 1.0 | 7.0 | 0.00 | 0.00 | 0.00 | 77 | 1004.6 |
| 20260507112422 | 62 | 203 | 0.0 | 7.0 | 0.00 | 0.00 | 0.00 | 79 | 1004.9 |
| 20260507111909 | 63 | 180 | 0.0 | 21.0 | 0.00 | 0.00 | 0.00 | 81 | 1004.9 |
| 20260507111400 | 63 | 203 | 2.0 | 21.0 | 0.00 | 0.00 | 0.00 | 78 | 1004.6 |
| 20260507110851 | 63 | 158 | 1.0 | 11.0 | 0.00 | 0.00 | 0.00 | 79 | 1004.5 |
| 20260507110337 | 63 | 203 | 5.0 | 16.0 | 0.00 | 0.00 | 0.00 | 81 | 1004.5 |
| 20260507105827 | 64 | 135 | 0.0 | 16.0 | 0.00 | 0.00 | 0.00 | 85 | 1004.2 |
| 20260507104807 | 64 | 203 | 4.0 | 15.0 | 0.00 | 0.00 | 0.00 | 89 | 1003.8 |
| 20260507104257 | 64 | 158 | 3.0 | 15.0 | 0.00 | 0.00 | 0.00 | 89 | 1003.4 |
| 20260507103746 | 64 | 203 | 4.0 | 13.0 | 0.00 | 0.00 | 0.00 | 88 | 1003.4 |
| 20260507103236 | 65 | 158 | 5.0 | 13.0 | 0.00 | 0.00 | 0.00 | 90 | 1003.1 |
| 20260507102729 | 65 | 203 | 4.0 | 13.0 | 0.00 | 0.00 | 0.00 | 91 | 1002.9 |
| 20260507102220 | 65 | 203 | 5.0 | 13.0 | 0.00 | 0.00 | 0.00 | 90 | 1002.9 |
| 20260507101707 | 65 | 203 | 4.0 | 8.0 | 0.00 | 0.00 | 0.00 | 90 | 1002.7 |
| 20260507101157 | 66 | 203 | 2.0 | 8.0 | 0.00 | 0.00 | 0.00 | 89 | 1002.9 |
| 20260507100648 | 66 | 248 | 4.0 | 11.0 | 0.00 | 0.00 | 0.00 | 89 | 1002.9 |
| 20260507100136 | 66 | 203 | 0.0 | 11.0 | 0.00 | 0.00 | 0.00 | 89 | 1002.7 |
| 20260507095117 | 66 | 135 | 2.0 | 13.0 | 0.00 | 0.00 | 0.00 | 88 | 1002.8 |
| 20260507094604 | 66 | 135 | 4.0 | 11.0 | 0.00 | 0.00 | 0.00 | 89 | 1002.7 |
| 20260507094057 | 67 | 135 | 3.0 | 9.0 | 0.00 | 0.00 | 0.00 | 89 | 1002.5 |
| 20260507093549 | 67 | 203 | 4.0 | 14.0 | 0.00 | 0.00 | 0.00 | 88 | 1002.4 |
| 20260507092525 | 67 | 135 | 4.0 | 11.0 | 0.00 | 0.00 | 0.00 | 87 | 1002.7 |
| 20260507092016 | 67 | 113 | 4.0 | 14.0 | 0.00 | 0.00 | 0.00 | 87 | 1002.7 |
| 20260507091505 | 67 | 225 | 2.0 | 15.0 | 0.00 | 0.00 | 0.00 | 87 | 1002.7 |
| 20260507085935 | 67 | 158 | 4.0 | 11.0 | 0.00 | 0.00 | 0.00 | 88 | 1002.2 |
| 20260507084914 | 67 | 180 | 7.0 | 14.0 | 0.00 | 0.00 | 0.00 | 87 | 1002.6 |
| 20260507084405 | 67 | 225 | 4.0 | 14.0 | 0.00 | 0.00 | 0.00 | 85 | 1002.4 |
| 20260507083346 | 67 | 180 | 7.0 | 14.0 | 0.00 | 0.00 | 0.00 | 82 | 1001.8 |
| 20260507082835 | 67 | 158 | 4.0 | 11.0 | 0.00 | 0.00 | 0.00 | 86 | 1001.5 |
| 20260507082325 | 67 | 203 | 5.0 | 11.0 | 0.00 | 0.00 | 0.00 | 89 | 1001.8 |
| 20260507081815 | 67 | 135 | 4.0 | 8.0 | 0.00 | 0.00 | 0.00 | 91 | 1002.0 |
| 20260507080755 | 67 | 248 | 0.0 | 8.0 | 0.00 | 0.00 | 0.00 | 91 | 1002.4 |
| 20260507080243 | 67 | 248 | 0.0 | 6.0 | 0.00 | 0.00 | 0.00 | 91 | 1002.5 |
| 20260507075732 | 67 | 225 | 2.0 | 7.0 | 0.00 | 0.00 | 0.00 | 91 | 1002.5 |
| 20260507075223 | 67 | 158 | 2.0 | 7.0 | 0.00 | 0.00 | 0.00 | 91 | 1002.3 |
| 20260507074202 | 67 | 180 | 4.0 | 11.0 | 0.00 | 0.00 | 0.00 | 91 | 1002.5 |
| 20260507073653 | 67 | 180 | 0.0 | 4.0 | 0.00 | 0.00 | 0.00 | 92 | 1002.5 |
| 20260507073142 | 67 | 203 | 2.0 | 4.0 | 0.00 | 0.00 | 0.00 | 92 | 1002.3 |
| 20260507072632 | 67 | 158 | 0.0 | 4.0 | 0.00 | 0.00 | 0.00 | 92 | 1002.1 |
| 20260507071613 | 67 | 158 | 2.0 | 4.0 | 0.00 | 0.00 | 0.00 | 92 | 1002.4 |
| 20260507071103 | 67 | 158 | 0.0 | 4.0 | 0.00 | 0.00 | 0.00 | 92 | 1002.4 |
| 20260507070553 | 68 | 248 | 2.0 | 4.0 | 0.00 | 0.00 | 0.00 | 91 | 1002.4 |
| 20260507065534 | 68 | 135 | 1.0 | 8.0 | 0.00 | 0.00 | 0.00 | 91 | 1002.6 |
| 20260507064514 | 68 | 158 | 2.0 | 9.0 | 0.00 | 0.00 | 0.00 | 91 | 1001.9 |
| 20260507064008 | 68 | 180 | 2.0 | 11.0 | 0.00 | 0.00 | 0.00 | 91 | 1002.0 |
| 20260507063455 | 69 | 158 | 4.0 | 11.0 | 0.00 | 0.00 | 0.00 | 91 | 1002.2 |
| 20260507062940 | 69 | 180 | 2.0 | 7.0 | 0.00 | 0.00 | 0.00 | 92 | 1002.3 |
| 20260507062431 | 70 | 225 | 1.0 | 2.0 | 0.00 | 0.00 | 0.00 | 91 | 1002.3 |
| 20260507061921 | 70 | 180 | 0.0 | 4.0 | 0.00 | 0.00 | 0.00 | 91 | 1002.2 |
| 20260507061411 | 70 | 225 | 1.0 | 4.0 | 0.00 | 0.00 | 0.00 | 91 | 1002.1 |
| 20260507060901 | 71 | 180 | 0.0 | 4.0 | 0.00 | 0.00 | 0.00 | 92 | 1002.2 |
| 20260507060350 | 71 | 248 | 0.0 | 4.0 | 0.00 | 0.00 | 0.00 | 92 | 1002.2 |
| 20260507055841 | 71 | 135 | 0.0 | 2.0 | 0.00 | 0.00 | 0.00 | 92 | 1002.1 |
| 20260507055331 | 71 | 180 | 0.0 | 4.0 | 0.00 | 0.00 | 0.00 | 94 | 1002.2 |
| 20260507054822 | 72 | 270 | 0.0 | 4.0 | 0.00 | 0.00 | 0.00 | 95 | 1002.1 |
| 20260507054311 | 72 | 270 | 0.0 | 7.0 | 0.00 | 0.00 | 0.00 | 95 | 1001.9 |
| 20260507053254 | 71 | 270 | 0.0 | 6.0 | 0.00 | 0.00 | 0.00 | 99 | 1002.0 |
| 20260507052741 | 70 | 270 | 1.0 | 4.0 | 0.00 | 0.00 | 0.00 | 99 | 1002.1 |
| 20260507052236 | 70 | 315 | 0.0 | 0.0 | 0.00 | 0.00 | 0.00 | 99 | 1001.5 |
| 20260507051721 | 70 | 315 | 0.0 | 4.0 | 0.00 | 0.00 | 0.00 | 99 | 1001.4 |
| 20260507051212 | 70 | 315 | 0.0 | 4.0 | 0.00 | 0.00 | 0.00 | 99 | 1001.4 |
| 20260507050702 | 70 | 315 | 0.0 | 0.0 | 0.00 | 0.00 | 0.00 | 99 | 1001.5 |
| 20260507050153 | 69 | 293 | 0.0 | 0.0 | 0.00 | 0.00 | 0.00 | 99 | 1001.5 |
| 20260507045638 | 69 | 315 | 0.0 | 0.0 | 0.00 | 0.00 | 0.00 | 98 | 1001.7 |
| 20260507045130 | 70 | 315 | 0.0 | 0.0 | 0.00 | 0.00 | 0.00 | 98 | 1001.5 |
| 20260507044619 | 70 | 293 | 0.0 | 0.0 | 0.00 | 0.00 | 0.00 | 97 | 1001.2 |
| 20260507044108 | 71 | 315 | 0.0 | 0.0 | 0.00 | 0.00 | 0.00 | 97 | 1001.3 |
| 20260507043601 | 71 | 315 | 0.0 | 0.0 | 0.00 | 0.00 | 0.00 | 97 | 1001.1 |
| 20260507043059 | 71 | 315 | 0.0 | 0.0 | 0.00 | 0.00 | 0.00 | 97 | 1001.3 |
| 20260507042539 | 71 | 338 | 0.0 | 0.0 | 0.00 | 0.00 | 0.00 | 97 | 1001.3 |
| 20260507042028 | 72 | 338 | 0.0 | 0.0 | 0.00 | 0.00 | 0.00 | 96 | 1001.5 |
| 20260507041530 | 71 | 338 | 0.0 | 0.0 | 0.00 | 0.00 | 0.00 | 97 | 1001.4 |
| 20260507041009 | 71 | 315 | 0.0 | 0.0 | 0.00 | 0.00 | 0.00 | 97 | 1001.5 |
| 20260507040502 | 71 | 315 | 0.0 | 0.0 | 0.00 | 0.00 | 0.00 | 96 | 1001.5 |
| 20260507035949 | 71 | 315 | 0.0 | 0.0 | 0.00 | 0.00 | 0.00 | 97 | 1001.6 |
| 20260507035439 | 71 | 338 | 0.0 | 0.0 | 0.00 | 0.00 | 0.00 | 97 | 1001.6 |
| 20260507034930 | 71 | 315 | 0.0 | 0.0 | 0.00 | 0.00 | 0.00 | 96 | 1001.7 |
| 20260507034437 | 72 | 315 | 0.0 | 2.0 | 0.00 | 0.00 | 0.00 | 96 | 1001.8 |
| 20260507033909 | 72 | 315 | 0.0 | 2.0 | 0.00 | 0.00 | 0.00 | 95 | 1001.8 |
| 20260507032337 | 73 | 0 | 0.0 | 0.0 | 0.00 | 0.00 | 0.00 | 94 | 1001.9 |
| 20260507031826 | 73 | 338 | 0.0 | 0.0 | 0.00 | 0.00 | 0.00 | 94 | 1001.9 |
| 20260507031317 | 73 | 338 | 0.0 | 0.0 | 0.00 | 0.00 | 0.00 | 93 | 1001.7 |
| 20260507030807 | 73 | 0 | 0.0 | 0.0 | 0.00 | 0.00 | 0.00 | 94 | 1001.9 |
| 20260507030257 | 73 | 315 | 0.0 | 0.0 | 0.00 | 0.00 | 0.00 | 94 | 1001.9 |
| 20260507025237 | 73 | 0 | 0.0 | 2.0 | 0.00 | 0.00 | 0.00 | 93 | 1001.8 |
| 20260507024727 | 73 | 338 | 0.0 | 0.0 | 0.00 | 0.00 | 0.00 | 93 | 1001.8 |
| 20260507023707 | 73 | 0 | 0.0 | 0.0 | 0.00 | 0.00 | 0.00 | 93 | 1002.0 |
| 20260507022647 | 74 | 315 | 0.0 | 0.0 | 0.00 | 0.00 | 0.00 | 92 | 1002.3 |
| 20260507022137 | 74 | 315 | 0.0 | 0.0 | 0.00 | 0.00 | 0.00 | 92 | 1002.2 |
| 20260507021627 | 74 | 315 | 0.0 | 0.0 | 0.00 | 0.00 | 0.00 | 92 | 1002.2 |
| 20260507021117 | 73 | 315 | 0.0 | 0.0 | 0.00 | 0.00 | 0.00 | 93 | 1002.0 |
| 20260507020607 | 73 | 338 | 0.0 | 0.0 | 0.00 | 0.00 | 0.00 | 93 | 1002.2 |
| 20260507020056 | 74 | 315 | 0.0 | 0.0 | 0.00 | 0.00 | 0.00 | 93 | 1002.3 |
| 20260507015549 | 74 | 315 | 0.0 | 0.0 | 0.00 | 0.00 | 0.00 | 92 | 1002.7 |
| 20260507015035 | 75 | 293 | 0.0 | 0.0 | 0.00 | 0.00 | 0.00 | 91 | 1002.7 |
| 20260507014528 | 75 | 293 | 0.0 | 0.0 | 0.00 | 0.00 | 0.00 | 90 | 1002.8 |
| 20260507014015 | 75 | 270 | 0.0 | 0.0 | 0.00 | 0.00 | 0.00 | 90 | 1002.6 |
| 20260507013505 | 74 | 270 | 0.0 | 0.0 | 0.00 | 0.00 | 0.00 | 91 | 1002.5 |
| 20260507012954 | 73 | 315 | 0.0 | 0.0 | 0.00 | 0.00 | 0.00 | 92 | 1002.3 |
| 20260507011935 | 73 | 338 | 0.0 | 0.0 | 0.00 | 0.00 | 0.00 | 93 | 1002.2 |
| 20260507011427 | 73 | 315 | 0.0 | 0.0 | 0.00 | 0.00 | 0.00 | 92 | 1002.2 |
| 20260507010915 | 73 | 315 | 0.0 | 0.0 | 0.00 | 0.00 | 0.00 | 92 | 1002.1 |
| 20260507005855 | 74 | 315 | 0.0 | 0.0 | 0.00 | 0.00 | 0.00 | 90 | 1001.9 |
| 20260507005345 | 75 | 315 | 0.0 | 2.0 | 0.00 | 0.00 | 0.00 | 89 | 1002.0 |
| 20260507004836 | 76 | 338 | 2.0 | 2.0 | 0.00 | 0.00 | 0.00 | 88 | 1001.8 |
| 20260507003815 | 76 | 0 | 0.0 | 2.0 | 0.00 | 0.00 | 0.00 | 87 | 1001.7 |
| 20260507002756 | 76 | 293 | 0.0 | 2.0 | 0.00 | 0.00 | 0.00 | 88 | 1001.4 |
| 20260507002245 | 76 | 113 | 0.0 | 2.0 | 0.00 | 0.00 | 0.00 | 88 | 1001.5 |
| 20260507001733 | 76 | 0 | 0.0 | 2.0 | 0.00 | 0.00 | 0.00 | 88 | 1001.4 |
| 20260507001222 | 76 | 248 | 0.0 | 0.0 | 0.00 | 0.00 | 0.00 | 88 | 1001.4 |
| 20260507000713 | 76 | 270 | 0.0 | 0.0 | 0.00 | 0.00 | 0.00 | 88 | 1001.5 |
| 20260507000205 | 76 | 293 | 0.0 | 0.0 | 0.00 | 0.00 | 0.00 | 88 | 1001.2 |
| 20260506235652 | 76 | 68 | 0.0 | 0.0 | 0.00 | 0.00 | 0.00 | 88 | 1001.4 |
| 20260506235143 | 76 | 248 | 0.0 | 0.0 | 0.00 | 0.00 | 0.00 | 87 | 1001.2 |
| 20260506234123 | 76 | 270 | 0.0 | 0.0 | 0.00 | 0.00 | 0.00 | 88 | 1001.1 |
| 20260506233104 | 76 | 113 | 0.0 | 0.0 | 0.00 | 0.00 | 0.00 | 87 | 1001.4 |
| 20260506232047 | 77 | 90 | 0.0 | 0.0 | 0.00 | 0.00 | 0.00 | 86 | 1001.6 |
| 20260506231023 | 77 | 68 | 0.0 | 0.0 | 0.00 | 0.00 | 0.00 | 86 | 1001.5 |
| 20260506230513 | 78 | 225 | 0.0 | 0.0 | 0.00 | 0.00 | 0.00 | 85 | 1001.4 |
| 20260506230003 | 78 | 0 | 0.0 | 0.0 | 0.00 | 0.00 | 0.00 | 85 | 1001.4 |
| 20260506225455 | 78 | 338 | 0.0 | 0.0 | 0.00 | 0.00 | 0.00 | 85 | 1001.6 |
| 20260506224944 | 78 | 338 | 0.0 | 0.0 | 0.00 | 0.00 | 0.00 | 85 | 1001.6 |
| 20260506224430 | 78 | 270 | 0.0 | 0.0 | 0.00 | 0.00 | 0.00 | 84 | 1001.6 |
| 20260506223920 | 78 | 270 | 0.0 | 0.0 | 0.00 | 0.00 | 0.00 | 84 | 1001.3 |
| 20260506223410 | 78 | 338 | 0.0 | 2.0 | 0.00 | 0.00 | 0.00 | 84 | 1001.0 |
| 20260506222350 | 78 | 90 | 0.0 | 2.0 | 0.00 | 0.00 | 0.00 | 83 | 1001.2 |
| 20260506221840 | 78 | 270 | 0.0 | 0.0 | 0.00 | 0.00 | 0.00 | 83 | 1001.1 |
| 20260506221330 | 79 | 248 | 0.0 | 0.0 | 0.00 | 0.00 | 0.00 | 82 | 1001.1 |
| 20260506220822 | 79 | 293 | 0.0 | 0.0 | 0.00 | 0.00 | 0.00 | 81 | 1001.3 |
| 20260506220311 | 80 | 113 | 0.0 | 0.0 | 0.00 | 0.00 | 0.00 | 81 | 1000.9 |
| 20260506215802 | 80 | 180 | 0.0 | 2.0 | 0.00 | 0.00 | 0.00 | 81 | 1001.0 |
| 20260506215251 | 80 | 45 | 0.0 | 2.0 | 0.00 | 0.00 | 0.00 | 80 | 1001.4 |
| 20260506214741 | 80 | 315 | 0.0 | 0.0 | 0.00 | 0.00 | 0.00 | 80 | 1001.5 |
| 20260506214231 | 81 | 68 | 0.0 | 0.0 | 0.00 | 0.00 | 0.00 | 80 | 1001.7 |
| 20260506213721 | 81 | 45 | 0.0 | 0.0 | 0.00 | 0.00 | 0.00 | 79 | 1001.5 |
| 20260506213211 | 82 | 0 | 0.0 | 2.0 | 0.00 | 0.00 | 0.00 | 78 | 1001.4 |
| 20260506211638 | 82 | 45 | 0.0 | 0.0 | 0.00 | 0.00 | 0.00 | 77 | 1001.6 |
| 20260506211129 | 82 | 0 | 0.0 | 0.0 | 0.00 | 0.00 | 0.00 | 77 | 1001.6 |
| 20260506210620 | 83 | 338 | 0.0 | 4.0 | 0.00 | 0.00 | 0.00 | 76 | 1001.8 |
| 20260506210108 | 84 | 338 | 0.0 | 4.0 | 0.00 | 0.00 | 0.00 | 74 | 1001.7 |
| 20260506205558 | 84 | 0 | 0.0 | 4.0 | 0.00 | 0.00 | 0.00 | 74 | 1001.6 |
| 20260506205048 | 85 | 338 | 0.0 | 4.0 | 0.00 | 0.00 | 0.00 | 73 | 1001.7 |
| 20260506204539 | 85 | 338 | 0.0 | 4.0 | 0.00 | 0.00 | 0.00 | 72 | 1001.8 |
| 20260506204028 | 85 | 0 | 1.0 | 11.0 | 0.00 | 0.00 | 0.00 | 72 | 1001.8 |
| 20260506203522 | 86 | 0 | 0.0 | 11.0 | 0.00 | 0.00 | 0.00 | 71 | 1001.7 |
| 20260506203010 | 86 | 0 | 1.0 | 11.0 | 0.00 | 0.00 | 0.00 | 71 | 1001.8 |